sat.trackr.live / text

‹ back to catalog

STARLINK-35131

NORAD 66075 · 2025-235T

PAYLOAD ACTIVE UNKNOWN

§ Identity

Operator
Country
US
Launch date
2025-10-19
Launch site
AFETR
Launch vehicle
Mass (kg)
RCS (m²)

Purposes: comms

External: N2YO · Heavens-Above · Gunter

§ Orbital elements

Epoch: 2026-09-20T14:23:17.418624Z

Period
93.85 min
Inclination
53.1600°
Eccentricity
0.0001416
Mean motion
15.34407244 rev/d
Perigee alt
461.7 km
Apogee alt
463.7 km
Semi-major
6,840.8 km
B*
3.9790e-4
RAAN
57.0506°
Arg perigee
82.9973°
Mean anomaly
277.1191°
Rev number
5,280

§ Raw data

STARLINK-351311 66075U 25235T   26263.59950716  .00013094  00000+0  39790-3 0  99992 66075  53.1600  57.0506 0001416  82.9973 277.1191 15.34407244 52801

JSON: /api/v1/satellites/66075 · /tle

For live sub-satellite position, see the globe view (requires WebGL).

§ Visibility from observer

Set your observer location to see the next 7 days of passes ≥ 10°. The values pass through the URL so the page stays shareable.

No JS? Fill the form by hand. The geolocation button needs JavaScript.